Radiation Dose at Monitoring Post of Fukushima Daini Nuclear Power Station
Date,Time,MP-1(microSv/h),MP-2(microSv/h),MP-3(microSv/h),MP-4(microSv/h),MP-5(microSv/h),MP-6(microSv/h),MP-7(microSv/h),Wind Direction,Wind Velocity(m/s),Rain
2022/05/29,00:00,0.149,0.139,0.218,0.213,0.214,0.120,0.077,southwest,3.5,No
2022/05/29,00:10,0.149,0.139,0.216,0.211,0.216,0.119,0.077,west,4.7,No
2022/05/29,00:20,0.150,0.138,0.218,0.212,0.214,0.120,0.078,west-southwest,4.9,No
2022/05/29,00:30,0.149,0.139,0.217,0.212,0.216,0.120,0.077,west-southwest,4.6,No
2022/05/29,00:40,0.150,0.139,0.217,0.213,0.214,0.119,0.076,west-southwest,4.6,No
2022/05/29,00:50,0.150,0.138,0.217,0.212,0.215,0.119,0.077,west-southwest,4.8,No
2022/05/29,01:00,0.149,0.139,0.217,0.211,0.215,0.119,0.077,west-southwest,6.9,No
2022/05/29,01:10,0.149,0.139,0.216,0.212,0.215,0.120,0.076,west,6.8,No
2022/05/29,01:20,0.151,0.139,0.217,0.212,0.215,0.120,0.077,west,6.9,No
2022/05/29,01:30,0.149,0.138,0.219,0.214,0.215,0.120,0.077,west,9.0,No
2022/05/29,01:40,0.150,0.139,0.217,0.212,0.215,0.119,0.077,west,9.2,No
2022/05/29,01:50,0.149,0.137,0.218,0.214,0.215,0.121,0.076,west,7.6,No
2022/05/29,02:00,0.151,0.139,0.217,0.211,0.215,0.121,0.077,west,6.7,No
2022/05/29,02:10,0.148,0.138,0.218,0.213,0.215,0.120,0.077,west,4.0,No
2022/05/29,02:20,0.150,0.139,0.217,0.211,0.215,0.120,0.078,west,5.5,No
2022/05/29,02:30,0.149,0.138,0.216,0.213,0.215,0.120,0.076,west,5.9,No
2022/05/29,02:40,0.150,0.139,0.215,0.210,0.214,0.120,0.076,west-southwest,3.0,No
2022/05/29,02:50,0.149,0.139,0.218,0.213,0.215,0.120,0.076,west-southwest,3.5,No
2022/05/29,03:00,0.150,0.140,0.217,0.211,0.215,0.119,0.077,southwest,4.0,No
2022/05/29,03:10,0.150,0.139,0.217,0.212,0.215,0.119,0.077,southwest,4.4,No
2022/05/29,03:20,0.150,0.138,0.217,0.212,0.215,0.119,0.077,southwest,4.9,No
2022/05/29,03:30,0.150,0.139,0.217,0.212,0.214,0.120,0.077,west-southwest,4.1,No
2022/05/29,03:40,0.150,0.138,0.218,0.211,0.216,0.121,0.076,west-southwest,4.2,No
2022/05/29,03:50,0.150,0.139,0.216,0.214,0.214,0.119,0.077,west-southwest,5.7,No
2022/05/29,04:00,0.150,0.139,0.218,0.211,0.216,0.119,0.077,southwest,4.7,No
2022/05/29,04:10,0.149,0.139,0.216,0.212,0.214,0.120,0.077,southwest,3.6,No
2022/05/29,04:20,0.150,0.139,0.218,0.212,0.216,0.120,0.077,southwest,5.1,No
2022/05/29,04:30,0.149,0.139,0.217,0.212,0.215,0.120,0.076,west-southwest,5.1,No
2022/05/29,04:40,0.150,0.140,0.218,0.212,0.216,0.120,0.076,southwest,3.1,No
2022/05/29,04:50,0.149,0.139,0.217,0.211,0.214,0.120,0.077,southeast,2.8,No
2022/05/29,05:00,0.151,0.139,0.217,0.214,0.216,0.120,0.077,south-southeast,3.4,No
2022/05/29,05:10,0.150,0.140,0.218,0.211,0.214,0.120,0.077,south-southeast,3.0,No
2022/05/29,05:20,0.149,0.139,0.217,0.214,0.216,0.120,0.076,southeast,4.0,No
2022/05/29,05:30,0.149,0.139,0.218,0.212,0.213,0.119,0.077,south,3.1,No
2022/05/29,05:40,0.150,0.138,0.217,0.213,0.217,0.120,0.077,south,2.9,No
2022/05/29,05:50,0.149,0.138,0.219,0.213,0.215,0.121,0.077,south-southwest,3.2,Yes
2022/05/29,06:00,0.150,0.140,0.217,0.212,0.212,0.120,0.076,south-southwest,3.2,No
2022/05/29,06:10,0.149,0.138,0.218,0.211,0.216,0.121,0.077,south-southwest,3.8,No
2022/05/29,06:20,0.150,0.138,0.218,0.213,0.212,0.120,0.076,southwest,3.7,No
2022/05/29,06:30,0.149,0.138,0.218,0.212,0.214,0.120,0.076,south-southwest,4.5,No
2022/05/29,06:40,0.150,0.138,0.217,0.213,0.214,0.119,0.077,south-southwest,2.3,No
2022/05/29,06:50,0.149,0.137,0.218,0.211,0.213,0.119,0.077,southwest,3.4,No
2022/05/29,07:00,0.151,0.139,0.215,0.213,0.215,0.120,0.077,southwest,3.0,No
2022/05/29,07:10,0.150,0.138,0.216,0.213,0.214,0.119,0.076,south-southwest,2.7,No
2022/05/29,07:20,0.150,0.138,0.217,0.211,0.215,0.120,0.076,south-southwest,2.5,No
2022/05/29,07:30,0.150,0.140,0.216,0.211,0.215,0.118,0.076,south-southeast,1.9,No
2022/05/29,07:40,0.149,0.139,0.215,0.213,0.212,0.121,0.076,south,1.5,No
2022/05/29,07:50,0.148,0.138,0.215,0.212,0.215,0.120,0.076,south-southwest,2.6,No
2022/05/29,08:00,0.149,0.138,0.215,0.210,0.215,0.119,0.077,south-southeast,3.1,No
2022/05/29,08:10,0.149,0.137,0.215,0.210,0.214,0.119,0.076,south-southwest,1.1,No
2022/05/29,08:20,0.147,0.137,0.215,0.209,0.213,0.120,0.076,west,4.7,No
2022/05/29,08:30,0.150,0.138,0.216,0.212,0.212,0.119,0.076,west,4.1,No
2022/05/29,08:40,0.150,0.140,0.219,0.212,0.214,0.119,0.076,west-southwest,2.6,No
2022/05/29,08:50,0.149,0.138,0.218,0.212,0.216,0.119,0.076,west-southwest,1.5,No
2022/05/29,09:00,0.147,0.138,0.217,0.211,0.215,0.120,0.076,west-southwest,3.5,No
2022/05/29,09:10,0.151,0.139,0.214,0.210,0.213,0.119,0.077,west-southwest,4.5,No
2022/05/29,09:20,0.150,0.140,0.216,0.210,0.212,0.119,0.076,west,5.4,No
2022/05/29,09:30,0.149,0.140,0.217,0.213,0.211,0.120,0.076,west,3.7,No
2022/05/29,09:40,0.148,0.140,0.221,0.213,0.212,0.119,0.077,west-southwest,2.0,No
2022/05/29,09:50,0.148,0.138,0.217,0.211,0.211,0.121,0.076,south-southeast,3.2,No
2022/05/29,10:00,0.148,0.138,0.218,0.212,0.214,0.119,0.076,west-northwest,2.5,No
2022/05/29,10:10,0.148,0.138,0.217,0.211,0.213,0.119,0.076,west-northwest,4.5,No
2022/05/29,10:20,0.150,0.138,0.217,0.212,0.214,0.119,0.075,west-northwest,7.6,No
2022/05/29,10:30,0.151,0.139,0.217,0.212,0.214,0.120,0.077,west-northwest,7.0,No
2022/05/29,10:40,0.151,0.139,0.217,0.211,0.214,0.120,0.076,west,7.1,No
2022/05/29,10:50,0.149,0.139,0.218,0.212,0.213,0.121,0.077,west,3.9,No
2022/05/29,11:00,0.150,0.139,0.218,0.213,0.214,0.120,0.076,west,3.0,No
2022/05/29,11:10,0.150,0.140,0.218,0.214,0.215,0.120,0.076,west-northwest,5.0,No
2022/05/29,11:20,0.149,0.140,0.219,0.213,0.216,0.121,0.077,west-northwest,5.4,No
2022/05/29,11:30,0.149,0.140,0.218,0.213,0.216,0.120,0.076,west,2.2,No
2022/05/29,11:40,0.150,0.140,0.219,0.213,0.215,0.120,0.077,west,1.4,No
2022/05/29,11:50,0.148,0.139,0.219,0.213,0.215,0.119,0.077,west-northwest,2.3,No
2022/05/29,12:00,0.150,0.140,0.219,0.213,0.215,0.120,0.077,west-northwest,1.7,No
2022/05/29,12:10,0.148,0.140,0.220,0.212,0.216,0.121,0.076,west,3.7,No
2022/05/29,12:20,0.150,0.140,0.219,0.214,0.216,0.120,0.076,west-northwest,4.5,No
2022/05/29,12:30,0.150,0.139,0.219,0.213,0.215,0.120,0.076,west,8.8,No
2022/05/29,12:40,0.150,0.140,0.219,0.214,0.215,0.121,0.077,west,8.2,No
2022/05/29,12:50,0.150,0.140,0.220,0.213,0.216,0.121,0.077,west,8.8,No
2022/05/29,13:00,0.150,0.142,0.220,0.214,0.215,0.121,0.077,west,6.9,No
2022/05/29,13:10,0.151,0.141,0.219,0.215,0.216,0.121,0.078,west,9.6,No
2022/05/29,13:20,0.150,0.140,0.219,0.215,0.216,0.120,0.078,west-northwest,8.1,No
2022/05/29,13:30,0.151,0.140,0.220,0.214,0.217,0.121,0.078,west-northwest,10.1,No
2022/05/29,13:40,0.152,0.140,0.219,0.215,0.216,0.121,0.078,west-northwest,6.6,No
2022/05/29,13:50,0.151,0.140,0.220,0.215,0.215,0.122,0.078,west,8.5,No
2022/05/29,14:00,0.151,0.141,0.219,0.215,0.216,0.121,0.077,west-northwest,5.4,No
2022/05/29,14:10,0.150,0.140,0.220,0.216,0.216,0.122,0.078,west,5.3,No
2022/05/29,14:20,0.151,0.141,0.221,0.217,0.217,0.121,0.077,west,6.5,No
2022/05/29,14:30,0.150,0.141,0.220,0.217,0.217,0.121,0.078,west-northwest,9.5,No
2022/05/29,14:40,0.151,0.141,0.219,0.216,0.217,0.122,0.077,west-northwest,7.5,No
2022/05/29,14:50,0.151,0.141,0.219,0.214,0.216,0.122,0.077,west-northwest,8.8,No
2022/05/29,15:00,0.151,0.141,0.219,0.215,0.217,0.121,0.078,west-northwest,7.5,No
2022/05/29,15:10,0.152,0.142,0.220,0.215,0.216,0.121,0.077,west-northwest,7.6,No
2022/05/29,15:20,0.151,0.141,0.220,0.215,0.216,0.121,0.077,west-northwest,7.0,No
2022/05/29,15:30,0.151,0.140,0.219,0.213,0.216,0.120,0.077,west-northwest,8.4,No
2022/05/29,15:40,0.151,0.141,0.219,0.213,0.215,0.121,0.077,west-northwest,7.8,No
2022/05/29,15:50,0.151,0.139,0.219,0.213,0.218,0.121,0.077,west-northwest,5.9,No
2022/05/29,16:00,0.151,0.140,0.220,0.214,0.216,0.121,0.077,west-northwest,6.9,No
2022/05/29,16:10,0.151,0.140,0.219,0.214,0.216,0.121,0.077,west-northwest,8.6,No
2022/05/29,16:20,0.152,0.141,0.219,0.214,0.216,0.121,0.076,west,9.2,No
2022/05/29,16:30,0.151,0.140,0.219,0.214,0.216,0.121,0.077,west,7.3,No
2022/05/29,16:40,0.150,0.140,0.218,0.215,0.215,0.121,0.077,west-northwest,7.2,No
2022/05/29,16:50,0.151,0.140,0.220,0.214,0.215,0.120,0.077,west-northwest,6.8,No
2022/05/29,17:00,0.150,0.140,0.218,0.214,0.215,0.121,0.077,west-northwest,6.5,No
2022/05/29,17:10,0.151,0.140,0.219,0.213,0.215,0.120,0.076,west-northwest,5.4,No
2022/05/29,17:20,0.150,0.140,0.221,0.214,0.215,0.120,0.077,west-northwest,3.9,No
2022/05/29,17:30,0.150,0.140,0.221,0.217,0.216,0.120,0.078,northwest,0.8,No
2022/05/29,17:40,0.150,0.141,0.219,0.217,0.215,0.121,0.078,-,CALM,No
2022/05/29,17:50,0.151,0.142,0.219,0.214,0.214,0.121,0.077,northwest,1.2,No
2022/05/29,18:00,0.152,0.141,0.218,0.215,0.216,0.120,0.078,east-northeast,2.1,No
2022/05/29,18:10,0.151,0.140,0.222,0.217,0.214,0.121,0.078,east,1.3,No
2022/05/29,18:20,0.150,0.141,0.223,0.217,0.214,0.121,0.078,east-northeast,2.7,No
2022/05/29,18:30,0.151,0.140,0.219,0.215,0.214,0.121,0.077,east,2.3,No
2022/05/29,18:40,0.153,0.140,0.222,0.215,0.218,0.121,0.078,east,3.1,No
2022/05/29,18:50,0.152,0.141,0.223,0.217,0.217,0.120,0.077,northeast,1.8,No
2022/05/29,19:00,0.149,0.140,0.219,0.214,0.215,0.120,0.078,north,0.9,No
2022/05/29,19:10,0.153,0.142,0.222,0.216,0.218,0.121,0.077,north-northwest,1.4,No
2022/05/29,19:20,0.152,0.141,0.221,0.217,0.217,0.120,0.076,north-northeast,1.6,No
2022/05/29,19:30,0.151,0.141,0.220,0.215,0.215,0.121,0.077,east,2.4,No
2022/05/29,19:40,0.152,0.142,0.222,0.218,0.220,0.121,0.077,east,1.3,No
2022/05/29,19:50,0.152,0.141,0.220,0.215,0.219,0.121,0.077,northeast,1.2,No
2022/05/29,20:00,0.152,0.141,0.224,0.216,0.215,0.121,0.077,northwest,1.4,No
2022/05/29,20:10,0.152,0.141,0.221,0.216,0.218,0.121,0.078,-,CALM,No
2022/05/29,20:20,0.151,0.141,0.222,0.216,0.216,0.122,0.078,north-northwest,1.0,No
2022/05/29,20:30,0.153,0.141,0.221,0.217,0.216,0.122,0.077,northwest,2.3,No
2022/05/29,20:40,0.151,0.142,0.222,0.215,0.218,0.121,0.078,northwest,3.1,No
2022/05/29,20:50,0.153,0.141,0.221,0.217,0.215,0.121,0.077,northwest,4.5,No
2022/05/29,21:00,0.152,0.141,0.220,0.216,0.218,0.121,0.077,northwest,4.1,No
2022/05/29,21:10,0.152,0.141,0.222,0.215,0.217,0.121,0.078,northwest,4.7,No
2022/05/29,21:20,0.152,0.142,0.222,0.216,0.216,0.121,0.078,northwest,4.5,No
2022/05/29,21:30,0.152,0.141,0.222,0.216,0.218,0.121,0.078,northwest,4.7,No
2022/05/29,21:40,0.153,0.141,0.222,0.217,0.216,0.121,0.078,north-northeast,2.6,No
2022/05/29,21:50,0.151,0.141,0.223,0.217,0.218,0.122,0.077,north-northeast,2.7,No
2022/05/29,22:00,0.153,0.141,0.221,0.216,0.216,0.121,0.078,north,3.4,No
2022/05/29,22:10,0.152,0.141,0.222,0.217,0.218,0.121,0.077,north,3.7,No
2022/05/29,22:20,0.153,0.142,0.222,0.215,0.216,0.121,0.078,northeast,4.1,No
2022/05/29,22:30,0.151,0.141,0.222,0.216,0.218,0.122,0.078,north-northeast,3.0,No
2022/05/29,22:40,0.153,0.141,0.221,0.216,0.217,0.122,0.078,north-northeast,3.5,No
2022/05/29,22:50,0.152,0.141,0.222,0.218,0.217,0.123,0.077,north,3.6,No
2022/05/29,23:00,0.152,0.141,0.222,0.216,0.218,0.122,0.079,north-northwest,3.5,No
2022/05/29,23:10,0.153,0.142,0.222,0.216,0.217,0.122,0.078,north-northwest,3.1,No
2022/05/29,23:20,0.152,0.141,0.221,0.216,0.217,0.121,0.078,north-northwest,3.6,No
2022/05/29,23:30,0.153,0.141,0.221,0.217,0.217,0.122,0.077,north-northwest,4.1,No
2022/05/29,23:40,0.152,0.141,0.222,0.216,0.217,0.122,0.077,north-northwest,3.5,No
2022/05/29,23:50,0.152,0.141,0.222,0.218,0.216,0.121,0.078,north-northwest,3.7,No
